World > North America > United States > Missouri > Yates

Yates, MO Hourly Weather Conditions

Feedback E-mail the Weather

Quick WX

Yates, MO Weather Maps

°F °C°F °C
Yates Weather Map
UTC Time: 12/7/2022, 02:56
Your Time:

Yates, MO Regional Weather

Expires:202212070300;;426317
ASUS43 KEAX 070215
RWREAX

WEATHER ROUNDUP FOR EASTERN KANSAS AND NORTHWEST MISSOURI
NATIONAL WEATHER SERVICE KANSAS CITY/PLEASANT HILL MO
800 PM CST TUE DEC 06 2022


MOZ001>008-011>017-020>025-030>033-038>040-044>046-053-054-070300-
...NORTHERN AND CENTRAL MISSOURI...
  
CITY           SKY/WX    TMP DP  RH WIND       PRES   REMARKS
ST. JOSEPH     CLEAR     32  26  78 CALM      30.05R                  
MOSBY            N/A     43  32  65 CALM      30.05R                  
HARRISONVILLE  CLOUDY    43  36  75 CALM      30.08R                  
WHITEMAN AFB   CLOUDY    41  36  84 CALM      30.04R                  
CLINTON        CLOUDY    41  41 100 CALM      30.05S FOG              
SEDALIA        CLOUDY    42  38  85 NW8       30.05R                  
MARSHALL       CLOUDY    41  36  81 CALM      30.06R                  
CHILLICOTHE      N/A     38  31  76 CALM      30.06R                  
MOBERLY        CLOUDY    45  36  70 CALM      30.05R                  
KIRKSVILLE       N/A    N/A N/A N/A MISG        N/A                   

$$


SKY/WX - Weather  TMP - Temperature  DP - Dew Point  RH - Humidity
WIND - Wind Direction/Speed PRES - Barometric Pressure VSB - Visibility
WCI - Wind Chill Index E13G22 Wind - East Wind 13 mph/Gusts of 22 mph

Trending Headlines

Trending Entertainment Headlines

Yates Radar Loop

Use the map search tool if you want to place a location marker on the radar map...

Yates Quick Facts

National Two Day Weather Forecast


E-mail the Yates Weather Forecast

Voice your opinion or tell us about page issues...